Wind_Speed
25 24 24 25 25 25 24 22 21 20 21 21 21 21 21 21 20 21 20 20 20 20 20 20 19 19 18 18 17 16 16 15 15 15 16 15 15 15 14 13 13 13 12 12 11 10 10 9 9
26 26 26 27 27 25 23 23 22 21 22 22 23 22 22 22 21 21 21 21 22 22 22 22 21 21 20 19 19 18 18 17 17 16 17 17 17 16 16 15 15 15 14 14 13 12 12 11 11
26 27 28 28 28 25 23 23 24 24 24 24 24 24 24 23 22 22 22 22 22 23 23 23 23 22 22 21 20 20 20 19 19 18 19 19 18 18 18 18 17 17 16 16 15 14 14 13 13
26 27 28 29 28 25 24 24 25 26 25 25 25 25 25 24 24 24 23 23 23 23 24 24 24 24 23 23 22 22 21 21 20 20 20 20 20 20 20 20 19 19 18 17 17 16 16 15 15
26 27 28 28 27 26 26 26 26 26 26 26 27 26 26 26 26 25 25 24 24 24 25 25 26 26 25 25 24 24 23 23 22 22 22 21 21 21 21 22 21 20 20 19 19 19 18 18 17
25 26 27 27 26 27 27 27 27 27 28 28 28 28 27 27 27 26 26 26 26 25 25 25 27 26 27 26 26 26 25 25 24 24 23 22 22 22 22 22 23 22 21 21 20 20 20 20 19
26 26 27 27 27 27 27 28 28 29 29 29 29 29 28 28 28 28 28 28 27 27 27 27 27 27 27 28 27 27 27 27 27 26 26 25 24 23 23 24 23 23 23 23 22 22 22 22 22
26 28 28 27 27 26 27 28 29 29 30 30 30 30 29 29 29 29 29 29 29 29 29 29 29 28 29 29 29 29 28 28 28 28 28 27 26 25 25 24 24 24 24 23 23 23 23 24 23
27 29 28 28 27 27 27 28 29 30 31 31 31 31 31 30 31 31 31 31 31 31 31 31 30 30 30 30 31 31 30 30 30 30 30 29 28 27 26 25 26 26 26 25 24 24 24 25 25
27 28 28 28 28 29 29 30 30 31 32 32 33 33 33 32 32 33 33 33 32 32 32 33 32 32 32 31 32 33 32 32 32 32 32 31 31 30 29 28 27 28 28 28 27 27 27 26 26
28 28 28 29 30 30 31 32 32 32 33 33 33 34 35 35 34 35 35 35 35 34 34 34 34 34 34 33 33 33 34 34 34 34 34 34 33 32 30 30 29 29 29 30 30 30 29 29 28
28 28 29 30 31 31 32 33 33 33 33 34 35 36 36 37 37 36 37 37 37 36 36 36 36 36 36 35 35 35 34 35 35 35 35 34 34 33 33 32 31 31 31 31 31 31 30 30 30
29 29 30 30 31 32 33 34 35 34 34 34 35 37 38 38 38 38 38 38 39 39 38 38 38 38 38 38 37 36 36 37 37 37 37 36 36 35 35 34 34 34 33 34 33 32 32 32 32
29 30 30 30 31 33 34 34 35 34 35 35 36 37 38 39 39 39 39 39 40 40 40 40 40 40 40 40 40 39 39 39 39 39 39 38 38 38 38 37 37 37 36 36 35 35 34 34 34
29 30 30 31 32 33 34 34 34 35 36 36 37 37 38 39 40 40 40 40 40 41 41 42 42 42 42 42 42 41 41 41 40 40 41 41 40 41 40 39 39 39 38 38 37 37 36 35 35
30 30 30 30 32 33 34 34 34 35 36 36 37 37 38 39 40 40 40 40 41 41 42 42 43 43 43 43 44 43 43 43 42 42 42 43 43 42 42 41 40 40 40 39 39 39 38 38 37
31 31 30 30 31 33 34 34 33 35 36 37 37 37 38 39 40 40 40 41 41 41 42 43 44 44 44 45 45 46 45 44 44 44 44 44 44 43 43 43 42 42 41 41 40 40 40 40 39
31 32 32 32 33 34 35 34 34 35 36 36 37 38 39 40 40 40 41 41 42 42 42 44 45 46 46 46 47 48 48 47 46 45 45 45 46 45 44 44 44 44 44 44 43 42 42 42 42
32 32 32 32 34 35 35 35 34 35 36 37 38 39 40 41 41 41 41 42 42 42 42 43 45 46 46 47 48 49 49 48 48 47 47 47 47 47 46 46 46 47 46 46 46 45 45 44 44
32 33 33 34 34 35 35 35 35 35 36 37 38 38 40 41 41 42 42 43 43 43 43 43 43 45 45 46 46 47 49 49 48 48 49 48 49 50 49 49 48 49 49 48 48 47 46 46 46
32 33 33 33 35 36 37 37 36 36 37 38 38 38 38 39 40 40 41 43 44 43 44 44 43 44 44 45 45 46 48 49 48 49 49 49 50 51 52 51 50 50 50 49 49 49 48 48 48
33 32 33 33 34 35 36 37 35 36 37 38 39 39 38 39 39 39 40 42 43 43 43 44 44 44 46 46 46 46 47 48 48 49 50 50 50 51 53 53 52 52 52 51 50 51 50 50 50
33 33 33 34 35 35 35 37 36 37 38 38 39 39 39 39 40 40 40 41 42 42 43 43 44 45 46 46 47 47 47 48 49 49 50 50 51 52 53 54 54 54 54 54 53 52 52 51 51
31 32 33 34 35 35 34 37 36 36 37 38 39 39 39 39 40 41 40 41 42 43 44 43 43 44 46 46 47 48 49 49 49 50 50 51 51 52 53 54 55 55 55 55 55 54 54 54 54
30 30 31 33 34 35 34 37 36 36 36 36 37 38 38 39 40 41 41 41 42 43 44 45 45 45 46 47 48 48 49 50 50 50 51 52 52 52 53 54 55 56 56 56 56 56 55 55 56
30 30 31 33 34 34 34 35 34 35 35 36 37 37 38 39 40 40 41 42 42 43 44 46 47 47 46 47 49 49 49 50 50 51 52 51 52 52 53 54 55 56 56 57 57 57 57 56 57
30 30 31 33 34 35 34 34 34 34 35 35 36 37 38 39 40 40 41 42 42 43 44 45 46 47 48 48 48 49 50 50 51 51 52 52 52 52 52 53 54 56 57 58 57 58 58 58 57
30 30 31 33 35 36 36 34 33 33 34 35 35 36 37 39 40 40 41 42 42 43 44 45 46 46 47 48 49 49 50 50 51 52 52 53 53 53 53 53 53 55 57 58 59 59 58 58 58
29 30 31 33 35 36 38 35 33 33 34 35 36 36 36 38 39 40 40 41 41 42 43 44 45 46 46 47 48 49 50 51 51 52 53 53 53 54 55 55 55 55 55 57 58 59 59 59 59
29 30 31 32 34 35 37 36 34 35 35 36 37 37 37 38 38 39 40 41 42 42 44 45 46 46 47 48 49 49 50 50 51 52 53 54 55 55 56 56 56 57 57 57 58 59 59 60 60
Wind_Direction
250 250 250 248 247 248 248 247 248 248 248 248 250 252 251 249 249 250 250 248 248 248 249 249 249 250 251 251 248 247 246 247 245 243 242 241 240 239 238 237 236 235 235 236 237 236 234 238 239
251 250 250 250 249 249 249 248 247 248 248 248 248 250 251 250 250 250 250 248 247 248 249 250 250 250 250 251 249 247 247 247 245 244 243 242 241 239 238 236 235 234 235 237 238 238 239 241 244
250 250 249 249 249 250 250 247 247 248 248 248 249 249 250 251 251 251 251 249 249 248 248 249 250 250 250 250 249 248 248 247 246 245 245 243 242 240 237 236 235 235 236 238 239 240 240 242 244
249 249 249 249 249 248 249 249 248 248 249 249 249 249 250 252 253 253 251 250 252 251 250 248 250 250 250 250 249 248 247 247 246 245 246 245 243 241 239 236 236 236 237 240 240 240 241 242 244
249 249 250 250 250 249 249 250 250 249 249 251 250 249 250 252 254 254 252 251 252 253 252 250 250 249 249 249 248 248 248 247 246 246 245 245 243 242 240 239 239 239 239 241 242 241 242 243 244
252 251 252 252 252 250 250 250 250 250 250 251 251 250 250 251 253 254 254 252 252 252 252 251 251 250 249 248 248 248 248 247 246 245 243 243 242 242 241 241 241 240 240 241 243 242 243 244 245
253 253 254 254 253 251 251 251 251 251 250 251 252 251 251 251 253 254 255 255 254 253 252 252 251 251 250 249 248 248 248 247 245 245 245 244 244 243 241 241 241 242 243 243 244 244 244 245 247
254 254 256 256 255 253 252 252 251 251 251 251 252 252 252 252 253 253 254 256 255 255 254 252 251 250 249 248 248 247 247 247 246 246 246 245 245 245 245 242 242 243 244 244 245 245 246 247 247
255 255 256 257 256 254 252 252 252 251 251 251 252 252 252 252 253 254 255 256 257 256 256 254 252 250 248 247 248 247 247 247 247 247 247 245 245 245 245 244 243 244 245 245 246 246 247 248 248
255 256 256 256 255 253 252 252 252 252 252 252 251 252 252 252 253 254 255 256 256 256 256 255 252 250 249 248 248 248 248 246 246 248 247 245 245 245 245 244 244 245 246 247 247 248 248 250 250
256 256 256 256 256 255 253 253 254 253 252 252 253 252 252 252 253 255 256 257 256 256 255 255 253 250 248 247 247 247 247 246 246 247 247 247 246 244 244 244 245 245 246 247 247 248 249 250 251
257 256 257 257 257 256 255 255 255 254 252 252 252 253 253 254 255 255 256 256 257 256 255 254 253 251 248 247 247 247 247 247 247 247 247 247 247 246 245 245 245 245 246 247 247 248 249 250 251
257 256 257 258 257 257 256 256 256 254 253 253 253 254 254 255 256 256 257 257 257 256 255 254 253 252 250 248 247 247 247 248 248 248 247 247 247 247 247 246 246 246 247 247 248 249 249 251 252
258 258 258 258 258 258 257 257 257 255 255 255 254 254 256 257 257 257 257 257 257 256 255 254 253 253 251 249 248 247 248 248 247 247 247 247 247 247 247 247 247 247 247 248 249 249 250 251 252
259 259 259 260 260 260 260 258 258 257 256 255 255 255 256 257 258 258 257 257 257 257 256 255 254 253 252 251 249 249 248 248 247 247 247 246 247 247 247 247 248 248 248 249 250 250 250 251 252
258 259 260 260 260 261 261 259 258 257 257 256 257 257 257 258 258 259 258 257 258 257 256 255 255 254 252 252 251 250 250 249 249 248 247 246 247 247 247 247 248 248 249 250 250 250 250 251 252
260 261 262 262 262 263 263 261 259 259 259 258 258 258 258 258 259 259 259 258 258 258 257 256 255 254 253 252 251 251 250 250 250 250 249 247 246 247 247 248 248 248 249 250 251 250 251 251 252
262 264 264 263 263 263 264 263 262 261 261 260 259 259 259 259 260 260 259 259 259 259 257 256 255 255 255 254 252 251 251 251 251 251 251 249 248 247 246 247 248 248 249 250 250 251 251 251 252
264 266 266 266 266 265 265 265 263 263 263 262 261 260 260 260 260 260 260 260 260 260 259 258 257 256 255 255 253 252 251 250 251 251 252 252 250 249 248 248 248 248 249 250 251 251 252 252 252
265 266 267 267 267 266 266 265 264 264 264 264 262 262 262 261 261 261 261 261 260 259 259 259 258 258 256 254 253 253 252 251 251 251 251 252 251 251 250 249 249 249 250 251 251 252 252 252 253
267 267 268 269 268 267 267 265 264 264 265 265 264 263 263 263 262 262 262 261 260 259 259 258 257 257 256 254 253 252 250 250 251 251 251 252 252 251 251 250 250 250 250 251 252 252 252 253 253
269 270 270 270 270 269 269 268 265 266 266 266 265 263 263 263 263 262 262 262 261 260 258 258 257 257 257 255 253 252 251 250 250 250 251 252 252 251 251 250 250 250 250 250 251 252 253 253 253
274 272 272 272 272 271 270 270 268 268 267 266 265 264 264 263 263 262 262 262 261 259 258 258 258 257 257 256 254 253 252 252 252 251 251 250 251 251 251 251 250 251 251 251 252 253 253 253 254
276 276 274 273 273 272 272 272 272 271 270 268 266 265 265 264 263 262 262 262 260 259 258 258 258 257 257 257 256 255 254 254 253 252 251 251 251 251 251 251 251 251 251 251 252 253 253 254 255
278 277 275 274 274 274 275 274 274 274 272 270 269 267 266 265 264 263 263 263 261 260 259 258 258 258 258 257 256 255 255 255 255 254 253 253 253 252 252 251 251 251 251 252 252 253 254 255 256
279 277 275 276 277 278 278 276 276 276 274 272 271 269 267 266 265 265 264 263 262 261 260 259 258 259 258 257 256 256 256 257 257 256 255 255 254 254 254 253 252 252 252 252 252 253 254 255 257
278 277 277 277 279 280 280 279 278 277 276 274 273 271 269 268 267 267 265 264 263 262 261 260 259 259 259 258 258 258 258 259 258 257 256 256 255 255 255 254 253 253 253 253 253 253 254 255 257
277 278 277 276 278 280 281 281 282 279 277 276 275 274 272 270 270 268 266 265 264 263 262 261 260 260 260 260 259 258 258 259 258 258 257 257 256 256 256 256 255 254 253 253 253 254 255 255 256
277 277 277 277 277 279 281 281 281 281 279 277 277 276 276 274 272 270 268 266 264 263 262 262 261 260 260 260 260 260 259 259 259 258 258 258 257 257 257 256 256 255 255 254 254 255 255 255 256
277 276 276 278 280 279 280 281 280 280 280 279 278 278 277 276 275 272 270 268 266 265 264 263 263 262 261 261 261 261 260 260 260 259 259 258 258 258 257 257 257 257 257 256 256 255 255 256 256
Height
5786 5787 5789 5791 5793 5794 5796 5799 5801 5804 5805 5807 5808 5809 5811 5812 5814 5818 5817 5817 5818 5820 5821 5822 5823 5824 5826 5827 5828 5829 5830 5831 5833 5834 5835 5836 5838 5839 5841 5842 5843 5845 5846 5847 5849 5850 5851 5852 5853
5781 5783 5785 5786 5787 5789 5793 5796 5798 5800 5801 5802 5804 5805 5807 5808 5810 5811 5812 5813 5814 5816 5817 5818 5820 5821 5822 5824 5825 5826 5827 5828 5829 5831 5832 5833 5835 5836 5838 5840 5841 5842 5844 5845 5847 5848 5849 5850 5852
5776 5778 5780 5781 5782 5786 5790 5792 5793 5795 5796 5798 5799 5801 5803 5804 5806 5807 5808 5809 5811 5812 5813 5815 5816 5817 5818 5820 5821 5822 5824 5825 5826 5827 5829 5830 5832 5833 5835 5837 5838 5840 5841 5843 5844 5846 5847 5848 5850
5771 5773 5774 5777 5779 5783 5785 5787 5788 5790 5791 5793 5795 5796 5798 5801 5802 5803 5804 5805 5807 5808 5809 5810 5812 5813 5814 5815 5817 5818 5819 5821 5822 5824 5825 5826 5828 5830 5831 5833 5835 5837 5838 5839 5841 5843 5844 5845 5847
5765 5767 5769 5771 5774 5778 5780 5782 5783 5785 5787 5788 5790 5792 5794 5796 5797 5798 5799 5801 5802 5803 5804 5806 5807 5808 5809 5811 5812 5814 5815 5816 5818 5820 5821 5823 5824 5826 5827 5829 5831 5833 5834 5836 5838 5839 5841 5842 5844
5760 5762 5764 5766 5769 5772 5775 5776 5778 5780 5781 5783 5785 5786 5788 5790 5792 5793 5794 5796 5797 5798 5799 5800 5802 5803 5804 5806 5807 5809 5810 5812 5813 5815 5817 5818 5820 5821 5823 5825 5827 5828 5830 5832 5834 5835 5837 5839 5840
5756 5757 5758 5761 5763 5766 5769 5770 5772 5774 5776 5778 5779 5781 5783 5785 5786 5788 5789 5790 5791 5793 5794 5795 5796 5798 5799 5801 5802 5803 5805 5806 5808 5810 5812 5813 5815 5817 5819 5820 5822 5824 5826 5828 5830 5831 5833 5835 5836
5749 5752 5753 5755 5758 5761 5763 5764 5766 5768 5770 5772 5773 5775 5778 5780 5781 5782 5783 5784 5786 5787 5788 5789 5791 5792 5793 5795 5796 5798 5799 5801 5803 5804 5806 5808 5810 5812 5814 5816 5818 5820 5821 5823 5825 5827 5828 5830 5832
5743 5746 5748 5750 5752 5754 5756 5758 5760 5761 5763 5765 5767 5769 5771 5773 5774 5775 5777 5778 5779 5780 5782 5783 5784 5786 5787 5789 5790 5792 5793 5795 5796 5798 5800 5802 5804 5806 5808 5810 5813 5815 5816 5818 5820 5822 5824 5825 5827
5737 5739 5742 5744 5745 5747 5749 5751 5753 5755 5757 5758 5760 5762 5763 5766 5767 5768 5770 5771 5772 5773 5775 5776 5777 5778 5780 5781 5783 5785 5787 5788 5790 5792 5794 5796 5798 5800 5803 5805 5807 5809 5811 5813 5815 5817 5818 5820 5822
5730 5733 5735 5736 5738 5739 5741 5743 5745 5747 5749 5751 5753 5755 5756 5758 5759 5761 5762 5763 5764 5765 5767 5768 5769 5771 5772 5774 5775 5777 5779 5781 5783 5785 5787 5789 5791 5794 5796 5798 5800 5803 5805 5807 5809 5811 5813 5815 5816
5723 5725 5727 5728 5730 5731 5733 5735 5737 5739 5742 5743 5745 5746 5748 5749 5751 5752 5753 5754 5756 5757 5758 5759 5761 5762 5764 5766 5767 5769 5771 5773 5775 5777 5780 5782 5784 5787 5789 5791 5794 5796 5798 5801 5803 5805 5807 5809 5810
5716 5718 5719 5720 5721 5723 5725 5727 5729 5731 5733 5735 5736 5738 5739 5741 5742 5743 5744 5745 5746 5747 5749 5750 5752 5753 5755 5757 5759 5760 5763 5765 5767 5769 5772 5774 5777 5779 5782 5784 5787 5789 5791 5794 5796 5798 5800 5802 5804
5709 5710 5711 5712 5713 5714 5716 5719 5720 5723 5724 5726 5727 5729 5730 5732 5733 5734 5735 5736 5737 5738 5739 5741 5742 5744 5746 5748 5750 5752 5754 5756 5758 5760 5763 5765 5768 5771 5774 5776 5779 5781 5783 5786 5788 5790 5793 5795 5797
5701 5702 5704 5705 5705 5707 5708 5711 5712 5714 5715 5717 5718 5720 5721 5722 5723 5724 5726 5726 5727 5728 5730 5731 5732 5734 5736 5738 5740 5742 5744 5747 5749 5751 5753 5756 5759 5762 5765 5767 5770 5773 5775 5777 5780 5782 5785 5787 5789
5693 5694 5696 5698 5698 5699 5701 5703 5704 5704 5706 5708 5709 5710 5712 5712 5713 5714 5715 5716 5717 5718 5719 5721 5722 5724 5726 5728 5730 5732 5734 5737 5739 5741 5743 5746 5749 5752 5755 5758 5761 5764 5766 5769 5771 5774 5776 5778 5780
5685 5687 5689 5691 5690 5690 5691 5694 5696 5695 5696 5698 5699 5700 5701 5703 5703 5704 5705 5706 5707 5708 5709 5710 5711 5713 5715 5717 5719 5721 5724 5726 5728 5731 5733 5736 5739 5742 5745 5748 5751 5754 5757 5759 5762 5764 5767 5769 5771
5679 5680 5681 5682 5682 5682 5683 5685 5687 5686 5687 5688 5689 5690 5691 5693 5694 5694 5695 5695 5696 5697 5698 5699 5700 5702 5704 5706 5708 5710 5712 5715 5718 5720 5722 5725 5728 5731 5735 5738 5741 5744 5747 5749 5752 5754 5757 5760 5762
5671 5672 5673 5674 5674 5674 5675 5676 5678 5678 5678 5679 5679 5680 5681 5682 5683 5683 5684 5685 5685 5686 5687 5687 5688 5690 5691 5693 5696 5698 5701 5704 5707 5709 5712 5714 5717 5720 5723 5727 5730 5733 5736 5739 5741 5744 5747 5749 5751
5663 5663 5664 5665 5665 5665 5666 5667 5668 5668 5668 5669 5669 5670 5671 5671 5672 5673 5673 5673 5674 5675 5675 5676 5677 5678 5680 5682 5684 5687 5689 5692 5695 5697 5700 5702 5705 5708 5712 5715 5719 5722 5725 5727 5730 5733 5735 5738 5741
5655 5656 5656 5656 5656 5655 5656 5657 5658 5659 5659 5659 5659 5659 5660 5661 5661 5662 5662 5663 5663 5664 5664 5665 5666 5667 5668 5670 5672 5674 5677 5679 5682 5685 5688 5691 5693 5696 5699 5703 5706 5709 5713 5716 5718 5721 5723 5726 5729
5646 5647 5647 5646 5646 5646 5646 5645 5649 5649 5648 5648 5649 5649 5650 5650 5651 5651 5652 5652 5652 5653 5653 5654 5655 5656 5657 5659 5660 5662 5665 5668 5670 5673 5675 5678 5681 5683 5686 5690 5693 5697 5700 5703 5706 5709 5711 5714 5717
5638 5637 5637 5637 5636 5636 5636 5635 5638 5638 5638 5638 5638 5639 5639 5640 5640 5640 5641 5641 5641 5641 5642 5643 5644 5644 5645 5647 5649 5651 5653 5655 5657 5660 5663 5665 5668 5670 5673 5677 5680 5683 5687 5690 5693 5696 5698 5701 5704
5629 5629 5628 5627 5626 5626 5627 5626 5627 5627 5628 5628 5628 5628 5628 5629 5629 5629 5630 5630 5630 5630 5631 5632 5633 5633 5634 5635 5637 5638 5640 5642 5645 5647 5650 5652 5655 5657 5660 5663 5666 5669 5673 5676 5680 5682 5685 5688 5690
5622 5621 5619 5617 5616 5618 5619 5616 5618 5618 5617 5617 5617 5617 5617 5618 5619 5619 5619 5619 5619 5619 5620 5621 5621 5622 5623 5624 5625 5626 5628 5630 5632 5634 5636 5638 5641 5644 5646 5649 5652 5655 5659 5662 5665 5669 5671 5674 5677
5613 5613 5612 5610 5609 5609 5609 5607 5610 5608 5607 5607 5607 5607 5607 5607 5608 5608 5608 5608 5608 5608 5608 5609 5609 5610 5611 5612 5613 5614 5616 5617 5619 5621 5623 5625 5628 5630 5633 5635 5638 5641 5644 5648 5651 5654 5657 5660 5662
5605 5604 5604 5602 5600 5600 5599 5600 5601 5599 5598 5597 5597 5596 5596 5596 5596 5596 5596 5596 5596 5596 5597 5597 5597 5598 5599 5600 5601 5602 5604 5605 5606 5608 5609 5612 5614 5616 5619 5621 5623 5626 5629 5633 5636 5639 5642 5645 5648
5597 5596 5595 5593 5591 5589 5590 5591 5592 5590 5589 5588 5587 5586 5586 5586 5585 5585 5585 5584 5584 5585 5585 5585 5585 5586 5587 5588 5589 5590 5591 5592 5594 5595 5596 5598 5600 5602 5604 5607 5609 5611 5614 5617 5620 5624 5626 5629 5632
5590 5589 5586 5584 5583 5581 5580 5584 5583 5581 5579 5578 5577 5576 5576 5575 5574 5573 5573 5573 5572 5572 5573 5573 5573 5574 5574 5575 5576 5577 5578 5579 5580 5582 5583 5584 5586 5588 5590 5592 5594 5596 5599 5601 5604 5608 5611 5614 5616
5580 5580 5578 5577 5575 5573 5571 5576 5573 5571 5569 5568 5567 5566 5565 5564 5563 5562 5562 5561 5561 5561 5560 5560 5561 5561 5561 5562 5563 5564 5565 5566 5567 5568 5569 5570 5572 5573 5575 5577 5579 5581 5583 5586 5588 5591 5594 5597 5600